Location: ????????
(55.4000°N, 39.1167°E)
Time: 13:34:55
(UTC+00:00)

Cosmos 2112 Rocket - Pass Details

Date: 19 May 2025
Orbit: 753 x 782 km, 74.0° (Epoch: 19 June)

Event Time Altitude Azimuth Distance (km) Brightness Sun altitude
Exits shadow 22:01:01 21° 193° (SSW) 1,658 5.1 -14.1°
Maximum altitude 22:04:29 71° 113° (ESE) 812 4.1 -14.0°
Drops below altitude 10° 22:09:42 10° 31° (NNE) 2,306 7.7 -13.9°
Sets 22:12:04 0° 29° (NNE) 3,232 8.8 -13.8°
